Boonton, New Jersey, United States (07005)
Lat: 40.90N, Lon: 74.41W
Wx Zone: NJZ008
Local Info
Past Weather Observations for Sunday, May 1, 2016

NOTE: This archive is for the closest National Weather Service station to Boonton. Information may differ from the station used for current weather conditions.

Click here for Long-term Archive

Time Weather Temperature Dewpoint Humidity Pressure Winds Precip Visibility
23:53
Overcast
Fog And Mist
45°F / 7°C 43°F / 6°C 93% 30.09 in
(1019 mb)
Calm - 4SM
23:23
Overcast
Fog And Mist
45°F / 7°C 43°F / 6°C 93% 30.09 in
(1019 mb)
ENE 4.6 mph
(ENE 7 kph)
- 4SM
23:16
Overcast
Fog And Mist
45°F / 7°C 43°F / 6°C 93% 30.09 in
(1019 mb)
ENE 4.6 mph
(ENE 7 kph)
- 2 1/2SM
22:53
Overcast
Fog And Mist
45°F / 7°C 43°F / 6°C 93% 30.09 in
(1019 mb)
ENE 5.8 mph
(ENE 9 kph)
- 3SM
21:53
Overcast
Fog And Mist
45°F / 7°C 43°F / 6°C 93% 30.09 in
(1019 mb)
ENE 5.8 mph
(ENE 9 kph)
- 5SM
20:53
Overcast
Fog And Mist
45°F / 7°C 43°F / 6°C 93% 30.09 in
(1019 mb)
E 5.8 mph
(E 9 kph)
- 5SM
19:53
Overcast
Fog And Mist
46°F / 8°C 43°F / 6°C 87% 30.12 in
(1020 mb)
E 10.4 mph
(E 17 kph)
0.00 in
(0.00 mm)
4SM
18:53
Overcast
Light Rain
46°F / 8°C 45°F / 7°C 93% 30.09 in
(1019 mb)
ESE 4.6 mph
(ESE 7 kph)
0.03 in
(0.76 mm)
5SM
18:47
Overcast
Light Rain
46°F / 8°C 45°F / 7°C 93% 30.12 in
(1020 mb)
E 5.8 mph
(E 9 kph)
0.03 in
(0.76 mm)
3SM
18:00
Overcast
Light Rain
46°F / 8°C 45°F / 7°C 93% 30.09 in
(1019 mb)
E 4.6 mph
(E 7 kph)
0.00 in
(0.00 mm)
1 1/2SM
17:53
Overcast
Fog And Mist
46°F / 8°C 45°F / 7°C 93% 30.09 in
(1019 mb)
E 5.8 mph
(E 9 kph)
0.01 in
(0.25 mm)
2 1/2SM
17:16
Overcast
Fog And Mist
46°F / 8°C 45°F / 7°C 93% 30.12 in
(1020 mb)
ENE 5.8 mph
(ENE 9 kph)
0.01 in
(0.25 mm)
2 1/2SM
16:53
Overcast
Light Rain
48°F / 9°C 45°F / 7°C 87% 30.12 in
(1020 mb)
E 5.8 mph
(E 9 kph)
0.00 in
(0.00 mm)
4SM
16:38
Overcast
Light Rain
48°F / 9°C 45°F / 7°C 87% 30.12 in
(1020 mb)
SE 5.8 mph
(SE 9 kph)
0.00 in
(0.00 mm)
3SM
16:33
Overcast
Light Rain
48°F / 9°C 45°F / 7°C 87% 30.12 in
(1020 mb)
ESE 5.8 mph
(ESE 9 kph)
0.00 in
(0.00 mm)
4SM
15:53
Overcast
48°F / 9°C 43°F / 6°C 82% 30.12 in
(1020 mb)
E 3.5 mph
(E 6 kph)
0.00 in
(0.00 mm)
10SM
15:45
Overcast
48°F / 9°C 43°F / 6°C 82% 30.12 in
(1020 mb)
SSE 5.8 mph
(SSE 9 kph)
0.00 in
(0.00 mm)
10SM
15:02
Overcast
Light Rain
46°F / 8°C 45°F / 7°C 93% 30.12 in
(1020 mb)
SE 4.6 mph
(SE 7 kph)
0.00 in
(0.00 mm)
2SM
14:53
Overcast
Light Rain
48°F / 9°C 45°F / 7°C 87% 30.12 in
(1020 mb)
SE 4.6 mph
(SE 7 kph)
0.00 in
(0.00 mm)
3SM
14:40
Overcast
Light Rain
48°F / 9°C 45°F / 7°C 87% 30.15 in
(1021 mb)
SE 5.8 mph
(SE 9 kph)
0.00 in
(0.00 mm)
2SM
13:53
Overcast
48°F / 9°C 43°F / 6°C 82% 30.15 in
(1021 mb)
Variable 5.8 mph
(Variable 9 kph)
0.00 in
(0.00 mm)
10SM
12:53
Overcast
Light Rain
48°F / 9°C 45°F / 7°C 87% 30.15 in
(1021 mb)
SE 6.9 mph
(SE 11 kph)
0.00 in
(0.00 mm)
4SM
11:53
Overcast
46°F / 8°C 43°F / 6°C 87% 30.18 in
(1022 mb)
SSE 8.1 mph
(SSE 13 kph)
0.01 in
(0.25 mm)
7SM
11:06
Overcast
Light Rain
48°F / 9°C 43°F / 6°C 82% 30.18 in
(1022 mb)
SE 6.9 mph
(SE 11 kph)
0.00 in
(0.00 mm)
6SM
10:53
Overcast
Light Rain
48°F / 9°C 43°F / 6°C 82% 30.18 in
(1022 mb)
SSE 5.8 mph
(SSE 9 kph)
0.01 in
(0.25 mm)
8SM
10:22
Overcast
Light Rain
46°F / 8°C 43°F / 6°C 87% 30.21 in
(1023 mb)
Calm 0.01 in
(0.25 mm)
3SM
10:13
Overcast
Light Rain
46°F / 8°C 43°F / 6°C 87% 30.21 in
(1023 mb)
SW 3.5 mph
(SW 6 kph)
0.00 in
(0.00 mm)
5SM
10:03
Overcast
Light Rain
46°F / 8°C 43°F / 6°C 87% 30.21 in
(1023 mb)
Variable 3.5 mph
(Variable 6 kph)
0.00 in
(0.00 mm)
8SM
09:53
Overcast
46°F / 8°C 43°F / 6°C 87% 30.21 in
(1023 mb)
Calm 0.01 in
(0.25 mm)
10SM
09:42
Overcast
Light Rain
46°F / 8°C 43°F / 6°C 87% 30.21 in
(1023 mb)
Calm 0.01 in
(0.25 mm)
10SM
08:53
Overcast
Light Rain
46°F / 8°C 37°F / 3°C 71% 30.21 in
(1023 mb)
E 4.6 mph
(E 7 kph)
0.03 in
(0.76 mm)
5SM
07:53
Overcast
Light Rain
46°F / 8°C 37°F / 3°C 71% 30.21 in
(1023 mb)
SE 4.6 mph
(SE 7 kph)
0.01 in
(0.25 mm)
8SM
06:53
Overcast
Light Rain
48°F / 9°C 39°F / 4°C 71% 30.21 in
(1023 mb)
S 3.5 mph
(S 6 kph)
0.00 in
(0.00 mm)
10SM
05:53
Overcast
Light Rain
48°F / 9°C 39°F / 4°C 71% 30.21 in
(1023 mb)
Calm 0.00 in
(0.00 mm)
10SM
04:53
Overcast
48°F / 9°C 39°F / 4°C 71% 30.18 in
(1022 mb)
Calm 0.00 in
(0.00 mm)
10SM
03:53
Overcast
48°F / 9°C 39°F / 4°C 71% 30.18 in
(1022 mb)
Calm - 10SM
02:53
Overcast
48°F / 9°C 37°F / 3°C 66% 30.21 in
(1023 mb)
Calm - 10SM
01:53
Overcast
50°F / 10°C 37°F / 3°C 62% 30.21 in
(1023 mb)
Calm - 10SM
00:53
Clear
52°F / 11°C 36°F / 2°C 54% 30.21 in
(1023 mb)
Calm - 10SM
Time Weather Temperature Dewpoint Humidity Pressure Winds Precip Visibility


Weather for websites

WeatherForYou.com, LLC is not responsible for any damages or problems caused by this service. Current weather conditions are obtained from the closest station including government and personal stations which may have varying degrees of accuracy. Weather forecasts are derived from the NOAA NDFD. Like all things, this site belongs to Jesus Christ... He just trusts us to maintain it. If you have any questions or comments email webmaster@weatherforyou.com

Copyright © 2016, WeatherForYou.com LLC. All rights reserved.